Een overzicht van alle kwartaalcijfers

Het is als aandelenbelegger belangrijk te weten wanneer kwartaal- en jaarcijfers worden gepubliceerd. Deze publicaties van de kwartaalcijfers kunnen immers een grote impact hebben om de koers van een aandeel.

In het overzicht hieronder vindt u alle details over de aankomende en reeds gepubliceerde kwartaalcijfers van alle bekendste Amerikaanse en Europese bedrijven.

Bovenaan de tabel kan u de zoekfunctie gebruiken. Dit is handig indien u opzoek bent naar kwartaalcijfers van een specifiek aandeel.

Wat zijn kwartaalcijfers?

Kwartaalcijfers zijn de belangrijkste financiële prestaties van een bedrijf van de voorgaande 3 maand. Kwartaalcijfers zijn van primordiaal belang bij een fundamentele analyse van het betreffende bedrijf. Vele analisten zitten tijdens het kwartaalcijferseizoen dan ook aan hun beeldscherm gekluisterd. De volatiliteit van de aandelenprijs gaat aanzienlijk de hoogte in wanneer de kwartaalcijfers gepubliceerd worden. Wat omvat de kwartaalcijfers? Bij kwartaalcijfers kan men denken aan omzet, winst en cashflow.

Jaarcijfers versus kwartaalcijfers

Jaarcijfers zijn alle financiële gegevens van een bedrijf van het afgelopen jaar. Alle jaarcijfers zijn terug te vinden in de jaarrekening. De jaarcijfers geven duidelijk weer wat de financiële situatie was overheen het afgelopen boekjaar. De jaarcijfers omvatten onder andere de jaarlijkse omzet, winst en cashflow.

Via LYNX heeft u de mogelijkheid om gebruik te maken van een stabiel handelsplatform en heeft u meteen connectie met meer dan 100 beurzen. Met één rekening kan u in producten handelen zoals aandelen, opties, futures enz.

Heeft u vragen of opmerkingen? Aarzel dan niet om contact op te nemen met LYNX op het nummer 09 223 23 20 of via e-mail info@lynx.be.

Overzicht kwartaalcijfers

Scroll of swipe in horizontale richting om de hele tabel te bekijken. Kantel uw scherm voor optimale weergave.

BedrijfDatumTickercodeConsensus EPSTijdstip
Xerox Holdings Corp20.04.2021XRX0.306:30:00
Travelers Companies Inc20.04.2021TRV2.3712:30:00
Philip Morris International Inc20.04.2021PM1.412:30:00
Procter & Gamble Co20.04.2021PG1.1912:30:00
Omnicom Group Inc20.04.2021OMC1.1312:30:00
Northern Trust Corp20.04.2021NTRS1.4812:30:00
Netflix Inc20.04.2021NFLX2.9720:00:00
Maui Land & Pineapple Company Inc20.04.2021MLP20:00:00
Lockheed Martin Corp20.04.2021LMT6.312:30:00
KeyCorp20.04.2021KEY0.4812:30:00
Johnson & Johnson20.04.2021JNJ2.3412:30:00
Intuitive Surgical Inc20.04.2021ISRG2.6320:00:00
Interactive Brokers Group Inc20.04.2021IBKR0.9120:00:00
Fifth Third Bancorp20.04.2021FITB0.6912:30:00
Edwards Lifesciences Corp20.04.2021EW0.4720:00:00
Dover Corp20.04.2021DOV1.4507:00:00
CSX Corp20.04.2021CSX0.9520:00:00
Comerica Inc20.04.2021CMA1.3712:30:00
AutoNation Inc20.04.2021AN1.8712:30:00
Abbott Laboratories20.04.2021ABT1.2712:30:00
Whirlpool Corp21.04.2021WHR5.4116:05:00
Verizon Communications Inc21.04.2021VZ1.2907:30:00
TE Connectivity Ltd21.04.2021TEL1.4812:30:00
SL Green Realty Corp21.04.2021SLG-0.1720:00:00
Spirit Airlines Inc21.04.2021SAVE-2.5420:00:00
Robert Half International Inc21.04.2021RHI0.7920:00:00
NVR Inc21.04.2021NVR65.2410:59:00
Nextera Energy Inc21.04.2021NEE0.5912:30:00
Nasdaq Inc21.04.2021NDAQ1.7312:30:00
Las Vegas Sands Corp21.04.2021LVS-0.2620:00:00
Lam Research Corp21.04.2021LRCX6.620:00:00
Lithia Motors Inc21.04.2021LAD4.7412:30:00
Kinder Morgan Inc21.04.2021KMI0.2420:00:00
Halliburton Co21.04.2021HAL0.1712:30:00
Equifax Inc21.04.2021EFX1.5320:00:00
Discover Financial Services21.04.2021DFS2.8220:00:00
Chipotle Mexican Grill Inc21.04.2021CMG0.0720:00:00
Crown Castle International Corp21.04.2021CCI0.5320:00:00
Anthem Inc21.04.2021ANTM6.5106:00:00
Verisign Inc22.04.2021VRSN1.320:00:00
Valero Energy Corp22.04.2021VLO-1.8912:30:00
Union Pacific Corp22.04.2021UNP2.0508:00:00
Tractor Supply Co22.04.2021TSCO0.9612:30:00
AT&T Inc22.04.2021T0.7812:30:00
Seagate Technology PLC22.04.2021STX1.3220:00:00
Snap Inc22.04.2021SNAP-0.0520:00:00
Snap-On Inc22.04.2021SNA3.0612:30:00
Southern Copper Corp22.04.2021SCCO0.8820:00:00
Pentair PLC22.04.2021PNR0.6112:30:00
People's United Financial Inc22.04.2021PBCT0.3420:00:00
Bank Ozk22.04.2021OZK0.8620:00:00
Nucor Corp22.04.2021NUE3.0712:30:00
Mattel Inc22.04.2021MAT-0.3420:00:00
Southwest Airlines Co22.04.2021LUV-1.8512:30:00
Intel Corp22.04.2021INTC1.1520:00:00
HCA Healthcare Inc22.04.2021HCA3.3512:30:00
Huntington Bancshares Inc22.04.2021HBAN0.3512:30:00
Genuine Parts Co22.04.2021GPC1.1412:30:00
FirstEnergy Corp22.04.2021FE0.6920:00:00
Freeport-McMoRan Inc22.04.2021FCX0.512:30:00
Dow Inc22.04.2021DOW1.1412:30:00
Danaher Corp22.04.2021DHR1.7512:30:00
D.R. Horton Inc22.04.2021DHI2.1512:30:00
Quest Diagnostics Inc22.04.2021DGX3.7212:30:00
Blackstone Group Inc22.04.2021BX0.7412:30:00
Biogen Inc22.04.2021BIIB5.0112:30:00
Allegion PLC22.04.2021ALLE1.0212:30:00
Alaska Air Group Inc22.04.2021ALK-3.6312:30:00
American Electric Power Company Inc22.04.2021AEP1.1712:30:00
American Airlines Group Inc22.04.2021AAL-4.2412:30:00
Schlumberger NV23.04.2021SLB0.1907:00:00
Regions Financial Corp23.04.2021RF0.4712:30:00
Kimberly-Clark Corp23.04.2021KMB1.9313:30:00
Honeywell International Inc23.04.2021HON1.812:30:00
Gentex Corp23.04.2021GNTX0.4812:30:00
American Express Co23.04.2021AXP1.6112:30:00
Autoliv Inc23.04.2021ALV1.4306:30:00
Waddell & Reed Financial Inc26.04.2021WDR0.4812:30:00
Universal Health Services Inc26.04.2021UHS2.2720:00:00
Tesla Inc26.04.2021TSLA0.7820:00:00
SS&C Technologies Holdings Inc26.04.2021SSNC1.120:00:00
SBA Communications Corp26.04.2021SBAC0.3320:00:00
Range Resources Corp26.04.2021RRC0.2520:00:00
Packaging Corp of America26.04.2021PKG1.4620:00:00
Otis Worldwide Corp26.04.2021OTIS0.6312:30:00
NXP Semiconductors NV26.04.2021NXPI2.2120:00:00
Markel Corp26.04.2021MKL11.1120:00:00
Corning Inc26.04.2021GLW0.4312:30:00
Ecolab Inc26.04.2021ECL0.8112:30:00
Crispr Therapeutics AG26.04.2021CRSP-1.4910:59:00
Check Point Software Technologies Ltd26.04.2021CHKP1.4912:30:00
Cadence Design Systems Inc26.04.2021CDNS0.7520:00:00
Ameriprise Financial Inc26.04.2021AMP4.6820:00:00
Affiliated Managers Group Inc26.04.2021AMG4.2412:30:00
Waste Management Inc27.04.2021WM1.0112:30:00
Visa Inc27.04.2021V1.2720:00:00
United Parcel Service Inc27.04.2021UPS1.7112:30:00
UDR Inc27.04.2021UDR-0.0120:00:00
Texas Instruments Inc27.04.2021TXN1.5820:00:00
Teradyne Inc27.04.2021TER1.0520:00:00
Stryker Corp27.04.2021SYK1.9916:05:00
Synchrony Financial27.04.2021SYF1.3812:30:00
Shutterstock Inc27.04.2021SSTK0.712:30:00
Sherwin-Williams Co27.04.2021SHW1.6412:30:00
Starbucks Corp27.04.2021SBUX0.5320:00:00
Raytheon Technologies Corp27.04.2021RTX0.8812:30:00
Roper Technologies Inc27.04.2021ROP3.3212:30:00
Transocean Ltd27.04.2021RIG-0.1710:59:00
Pinterest Inc27.04.2021PINS0.0820:00:00
Pultegroup Inc27.04.2021PHM1.2212:30:00
Principal Financial Group Inc27.04.2021PFG1.3516:15:00
Paccar Inc27.04.2021PCAR1.2912:30:00
Opera Ltd27.04.2021OPRA0.0212:30:00
ONEOK Inc27.04.2021OKE0.7620:00:00
Nov Inc27.04.2021NOV-0.2120:00:00
Navient Corp27.04.2021NAVI0.7720:00:00
Maxim Integrated Products Inc27.04.2021MXIM0.7420:00:00
Microsoft Corp27.04.2021MSFT1.7720:00:00
3M Co27.04.2021MMM2.2912:30:00
Marsh & McLennan Companies Inc27.04.2021MMC1.7112:30:00
Mondelez International Inc27.04.2021MDLZ0.6916:05:00
Eli Lilly and Co27.04.2021LLY2.1412:30:00
Juniper Networks Inc27.04.2021JNPR0.2520:00:00
Invesco Ltd27.04.2021IVZ0.6112:30:00
iRobot Corp27.04.2021IRBT0.0920:00:00
Illumina Inc27.04.2021ILMN1.3820:00:00
Hasbro Inc27.04.2021HAS0.6712:30:00
Alphabet Inc27.04.2021GOOGL15.7420:00:00
General Electric Co27.04.2021GE0.0112:30:00
TechnipFMC PLC27.04.2021FTI-0.0920:00:00
Fiserv Inc27.04.2021FISV1.1312:30:00
F5 Networks Inc27.04.2021FFIV2.3923:00:00
FireEye Inc27.04.2021FEYE0.0620:00:00
Essex Property Trust Inc27.04.2021ESS0.9620:00:00
Equity Residential27.04.2021EQR0.2420:00:00
Edison International27.04.2021EIX0.7320:00:00
DTE Energy Co27.04.2021DTE2.1212:30:00
DTE Energy Co27.04.2021DTE2.1212:30:00
Crocs Inc27.04.2021CROX0.8812:30:00
Cree Inc27.04.2021CREE-0.2320:00:00
Capital One Financial Corp27.04.2021COF4.1720:00:00
Centene Corp27.04.2021CNC1.5912:30:00
CH Robinson Worldwide Inc27.04.2021CHRW0.9820:00:00
Chubb Ltd27.04.2021CB2.5620:00:00
Boyd Gaming Corp27.04.2021BYD0.9920:00:00
Boston Properties Inc27.04.2021BXP0.5720:00:00
Advanced Micro Devices Inc27.04.2021AMD0.4420:00:00
Archer-Daniels-Midland Co27.04.2021ADM1.0512:30:00
BedrijfDatumEPSVerwachting EPSAfwijkingOmzet
Adobe10.12.20202.812.665.64%3.42 Mrd
Costco10.12.20202.292.0511.71%43.21 Mrd
Nike18.12.20200.780.6324.72%11.24 Mrd
JPMorgan15.01.20213.792.6244.66%30.16 Mrd
Netflix19.01.20211.191.36-12.50%6.64 Mrd
ASML20.01.20213.912.9731.65%5.15 Mrd
IBM21.01.20212.071.8114.36%20.37 Mrd
Intel21.01.20211.521.1136.94%19.98 Mrd
Verizon26.01.20211.211.173.42%34.69 Mrd
3M26.01.20212.382.1510.70%8.58 Mrd
Texas Instruments26.01.20211.81.3434.33%4.08 Mrd
Starbucks26.01.20210.610.5510.29%6.75 Mrd
Advanced Micro Devices26.01.20210.520.479.91%3.24 Mrd
Microsoft26.01.20212.031.6423.78%43.08 Mrd
Johnson & Johnson26.01.20211.861.822.20%22.48 Mrd
Boeing27.01.2021-15.25-1.64-829.88%15.3 Mrd
LVMH27.01.20218.297.4710.98%14.3 Mrd
Apple27.01.20211.681.4218.31%111.44 Mrd
Tesla27.01.20210.81.02-21.57%10.74 Mrd
Facebook27.01.20213.883.1921.63%28.07 Mrd
McDonald's28.01.20211.71.77-3.95%5.31 Mrd
Comcast28.01.20210.560.4816.30%27.71 Mrd
Visa28.01.20211.421.2810.94%5.69 Mrd
Chevron29.01.2021-0.010.09-110.89%25.25 Mrd
Caterpillar29.01.20212.121.4942.28%11.24 Mrd
SAP29.01.20211.691.605.62%7.54 Mrd
Alibaba02.02.202122.0320.596.99%221.08 Mrd
BP02.02.20210.03420.09-61.79%48.57 Mrd
Amazon02.02.202114.097.2095.69%125.56 Mrd
Amgen02.02.20213.813.3613.39%6.63 Mrd
Alphabet02.02.202122.315.7741.41%56.9 Mrd
Banco Santander03.02.20210.0740.0624.79%11 Mrd
Siemens03.02.20211.671.1742.74%14.07 Mrd
PayPal03.02.20211.081.008.36%6.12 Mrd
Royal Dutch Shell04.02.20210.10.14-26.63%43.99 Mrd
Merck & Company04.02.20211.321.38-4.35%12.51 Mrd
T-Mobile US04.02.20210.60.5116.85%20.34 Mrd
BNP Paribas05.02.20211.060.9215.78%10.83 Mrd
Vinci05.02.20212.742.4710.93%12.46 Mrd
Linde05.02.20211.911.806.11%6.05 Mrd
Sanofi05.02.20211.221.156.09%9.38 Mrd
BASF26.02.20210.60.77-22.47%
Enel18.03.20210.120.14-14.29%
UnternehmenDatumEPSEstimatesDeviationRevenue
Nike0.950.47101.61%10.59 Mrd
Adobe2.572.416.64%3.23 Mrd
Costco3.512.8523.16%53.38 Mrd
PepsiCo01.10.20201.661.4911.41%18.09 Mrd
Johnson & Johnson13.10.20202.21.9811.11%21.08 Mrd
JPMorgan13.10.20202.922.2330.94%29.94 Mrd
ASML14.10.20202.992.6413.26%4.65 Mrd
IBM19.10.20202.582.580.00%17.56 Mrd
Proctor & Gamble20.10.20201.631.4214.79%19.32 Mrd
Netflix20.10.20201.742.13-18.31%6.44 Mrd
Texas Instruments20.10.20201.451.2813.28%3.82 Mrd
Verizon21.10.20201.251.222.46%31.5 Mrd
Iberdrola21.10.20200.1240.14-11.30%7.78 Mrd
Tesla21.10.20200.760.5928.81%8.77 Mrd
Coca Cola22.10.20200.550.4618.89%8.7 Mrd
Intel22.10.20201.111.110.00%18.33 Mrd
Daimler23.10.20201.921.6615.66%40.28 Mrd
Banco Santander26.10.20200.10540.101.05%11.09 Mrd
SAP26.10.20201.321.301.54%6.54 Mrd
Deutsche Börse AG27.10.20201.381.361.47%707.5 Mio
BP27.10.20200.0252-0.05146.24%44.2 Mrd
Merck & Company27.10.20201.741.4420.83%12.55 Mrd
Caterpillar27.10.20201.341.1813.56%9.88 Mrd
3M27.10.20202.432.267.52%8.35 Mrd
Volkswagen27.10.20205.173.9829.90%59.36 Mrd
BASF27.10.20200.60.4048.85%13.81 Mrd
Advanced Micro Devices27.10.20200.410.3515.53%2.8 Mrd
Microsoft27.10.20201.821.5418.18%37.15 Mrd
Boeing28.10.2020-1.39-2.3139.83%14.14 Mrd
Airbus28.10.2020-0.980.55-277.92%11.21 Mrd
Amgen28.10.20204.373.9311.20%6.42 Mrd
Visa28.10.20201.121.092.75%5.1 Mrd
Royal Dutch Shell29.10.20200.24410.04444.87%44.02 Mrd
Anheuser Busch29.10.20200.690.73-5.48%
Sanofi29.10.20201.831.763.98%9.88 Mrd
Amazon29.10.202012.377.4166.94%96.15 Mrd
Apple29.10.20200.730.712.83%64.7 Mrd
Facebook29.10.20202.711.9042.63%21.47 Mrd
Comcast29.10.20200.650.5226.19%25.53 Mrd
Starbucks29.10.20200.510.3163.46%6.2 Mrd
Alphabet29.10.202016.411.2845.39%46.17 Mrd
Chevron30.10.20200.11-0.26142.88%24.45 Mrd
Total30.10.20200.250.2119.05%
PayPal02.11.20201.070.9413.83%5.46 Mrd
Bayer AG03.11.20200.811.01-19.80%8.51 Mrd
BMW03.11.20202.711.9737.56%26.28 Mrd
Enel04.11.20200.110.24-54.17%15.11 Mrd
Qualcomm04.11.20201.451.1723.93%6.5 Mrd
ING05.11.20200.20.23-12.93%4.29 Mrd
Alibaba05.11.20201813.8230.25%155.06 Mrd
Linde05.11.20201.821.678.98%5.8 Mrd
T-Mobile US05.11.202010.46116.64%19.27 Mrd
Booking Holdings05.11.202012.2714.36-14.55%2.64 Mrd
Amadeus06.11.2020-0.28-0.3213.77%418.6 Mio
Allianz06.11.20204.893.8228.01%31.4 Mrd
McDonald's09.11.20202.221.9116.23%5.42 Mrd
Adidas10.11.20202.82.684.48%5.96 Mrd
Deutsche Post11.11.20200.670.644.00%16.24 Mrd
Deutsche Telekom11.11.20200.320.307.06%26.39 Mrd
Tencent12.11.20203.963.3119.64%
Siemens12.11.20202.171.9411.86%15.31 Mrd
Pinduoduo12.11.2020-0.66-1.4353.85%14.21 Mrd
Cisco12.11.20200.760.707.82%11.93 Mrd
Walt Disney12.11.2020-0.2-0.7272.36%14.71 Mrd
JD.com16.11.20203.422.6927.14%174.21 Mrd
Home Depot17.11.20203.183.054.26%33.54 Mrd
Walmart17.11.20201.341.1813.56%134.7 Mrd
NVIDIA18.11.20202.912.5812.79%4.73 Mrd
Intuit19.11.20200.940.41127.82%1.32 Mrd
Zoom Video Communications30.11.20200.990.7630.13%777.2 Mio
Salesforce.com01.12.20201.740.75132.37%5.42 Mrd
Broadcom10.12.20206.356.251.60%6.47 Mrd
Inditex16.12.20200.2750.270.36%6.1 Mrd
BNP Paribas29.12.20201.441.47-2.04%10.89 Mrd
BedrijfDatumEPSVerwachting EPSAfwijkingOmzet
EssilorLuxottica-0.940.51-284.31%2.45 Mrd
BNP Paribas1.81.762.27%11.68 Mrd
Safran1.141.36-16.18%3.38 Mrd
BMW-0.350.26-234.62%19.97 Mrd
Vinci-0.531.75-130.29%8.05 Mrd
Danone1.761.760.00%5.95 Mrd
Deutsche Börse AG1.571.59-1.26%777.5 Mio
Amadeus-0.51-0.5710.53%259.5 Mio
Royal Dutch Shell0.1638-0.24168.25%32.5 Mrd
Verizon1.181.152.61%30.45 Mrd
Nike-0.510.09-666.67%6.31 Mrd
Coca Cola0.420.405.00%7.2 Mrd
Merck & Company1.371.0629.25%10.87 Mrd
Chevron-1.59-0.93-70.97%13.49 Mrd
McDonald's0.660.74-10.81%3.76 Mrd
Boeing-4.79-2.55-87.84%11.81 Mrd
IBM2.182.094.31%18.12 Mrd
Caterpillar1.030.6460.94%10 Mrd
3M1.781.80-1.11%7.18 Mrd
LVMH1.041.040.00%7.8 Mrd
L'Oreal3.253.74-13.10%5.85 Mrd
SAP1.171.124.46%6.74 Mrd
Anheuser Busch-0.350.36-197.22%
Linde1.611.479.52%5.41 Mrd
Sanofi1.281.206.67%8.44 Mrd
Total0.56-0.19394.74%
Volkswagen-3.23-3.6912.47%41.08 Mrd
Inditex0.06950.07-0.71%4.73 Mrd
Iberdrola0.090.10-10.00%7.04 Mrd
Kering2.2514.54-84.53%2.18 Mrd
Airbus-1.24-1.02-21.57%8.32 Mrd
BASF0.25-0.06516.67%12.68 Mrd
Amazon10.31.48595.95%88.91 Mrd
Apple0.6450.5126.47%59.69 Mrd
Tesla0.4360.006.04 Mrd
Facebook1.81.3929.50%18.69 Mrd
PayPal1.070.8722.99%5.26 Mrd
Netflix1.591.82-12.64%6.15 Mrd
Intel1.231.1110.81%19.73 Mrd
Comcast0.690.5525.45%23.72 Mrd
Adobe2.452.325.60%3.13 Mrd
ASML2.042.25-9.33%3.8 Mrd
Broadcom5.45.243.05%5.82 Mrd
PepsiCo1.321.255.60%15.95 Mrd
Texas Instruments1.480.8868.18%3.24 Mrd
Amgen4.253.8211.26%6.21 Mrd
Starbucks-0.46-0.5719.30%4.22 Mrd
Advanced Micro Devices0.180.1612.50%1.93 Mrd
Microsoft1.461.348.96%38.03 Mrd
Alphabet10.137.9427.58%38.3 Mrd
Johnson & Johnson1.671.4912.08%18.34 Mrd
JPMorgan1.381.1520.00%33.82 Mrd
Visa1.061.032.91%4.84 Mrd
Costco28.05.20201.891.93-2.07%37.27 Mrd
Enel03.08.20200.10.11-9.09%17.84 Mrd
Bayer AG04.08.20201.591.543.25%10.05 Mrd
Banco Santander04.08.20200.0840.03180.00%10.7 Mrd
BP04.08.2020-1.98-2.3616.10%31.19 Mrd
Schneider Electric04.08.20201.392.47-43.72%5.75 Mrd
Walt Disney04.08.20200.08-0.64112.50%11.78 Mrd
Deutsche Post05.08.20200.420.43-2.33%15.96 Mrd
Adidas06.08.2020-1.45-1.31-10.69%3.58 Mrd
AXA06.08.20200.561.42-60.56%47.95 Mrd
ING06.08.20200.15610.1320.08%4.67 Mrd
Siemens06.08.20201.010.47114.89%13.49 Mrd
T-Mobile US06.08.20200.090.11-18.18%17.67 Mrd
Tencent12.08.20203.153.043.62%
Cisco12.08.20200.80.748.11%12.15 Mrd
Deutsche Telekom13.08.20200.270.32-15.63%27.04 Mrd
JD.com17.08.20203.512.7129.52%201.05 Mrd
Home Depot18.08.20204.023.689.24%38.05 Mrd
Walmart18.08.20201.561.2524.80%137.7 Mrd
NVIDIA19.08.20202.181.9710.66%3.87 Mrd
Adyen20.08.20205.092.9473.13%328.5 Mio
Alibaba20.08.202014.8213.827.24%153.75 Mrd
Pinduoduo21.08.2020-0.75-1.5350.98%12.19 Mrd
Salesforce.com25.08.20201.440.67114.93%5.15 Mrd
Intuit25.08.20201.811.1163.06%1.82 Mrd
Zoom Video Communications31.08.20200.920.45104.44%663.52 Mio
BedrijfDatumEPSVerwachting EPSAfwijkingOmzet
#N/A